This is the latest recevied weather packets stored in our database for station/object W4ZHA. If no packets are shown the sender has not sent any weather packets the latest 10 day(s).
| Time | Temp. | Humidity | Pressure | Rain* | Wind** | Luminosity | Snow |
|---|---|---|---|---|---|---|---|
| 1787525010 | 31.11° C | 45% | 1015.5 hPa | 0 mm | - | 285 W/m² | - |
| 1787524709 | 31.67° C | 45% | 1015.5 hPa | 0 mm | - | 293 W/m² | - |
| 1787524406 | 30.56° C | 45% | 1015.5 hPa | 0 mm | - | 302 W/m² | - |
| 1787524100 | 31.67° C | 45% | 1015.5 hPa | 0 mm | - | 312 W/m² | - |
| 1787523796 | 32.22° C | 45% | 1015.5 hPa | 0 mm | - | 324 W/m² | - |
| 1787523495 | 31.67° C | 45% | 1015.5 hPa | 0 mm | - | 329 W/m² | - |
| 1787523191 | 31.67° C | 45% | 1015.5 hPa | 0 mm | - | 339 W/m² | - |
| 1787522886 | 32.78° C | 45% | 1015.5 hPa | 0 mm | - | 349 W/m² | - |
| 1787522583 | 32.78° C | 47% | 1015.5 hPa | 0 mm | - | 361 W/m² | - |
| 1787522277 | 31.67° C | 45% | 1015.5 hPa | 0 mm | - | 369 W/m² | - |
| 1787521973 | 31.67° C | 45% | 1015.5 hPa | 0 mm | - | 372 W/m² | - |
| 1787521671 | 32.22° C | 45% | 1015.5 hPa | 0 mm | - | 378 W/m² | - |
| 1787521366 | 31.67° C | 45% | 1015.5 hPa | 0 mm | - | 383 W/m² | - |
| 1787521060 | 32.22° C | 45% | 1015.5 hPa | 0 mm | - | 393 W/m² | - |
| 1787520756 | 31.67° C | 45% | 1015.5 hPa | 0 mm | - | 398 W/m² | - |
| 1787520451 | 32.22° C | 45% | 1015.5 hPa | 0 mm | - | 404 W/m² | - |
| 1787520147 | 31.67° C | 45% | 1015.5 hPa | 0 mm | - | 408 W/m² | - |
| 1787519842 | 32.22° C | 45% | 1015.5 hPa | 0 mm | - | 409 W/m² | - |
| 1787519538 | 31.67° C | 45% | 1015.5 hPa | 0 mm | - | 416 W/m² | - |
| 1787519233 | 32.78° C | 45% | 1015.5 hPa | 0 mm | - | 424 W/m² | - |
| 1787518928 | 32.78° C | 45% | 1015.5 hPa | 0 mm | - | 423 W/m² | - |
| 1787518622 | 32.22° C | 45% | 1015.5 hPa | 0 mm | - | 430 W/m² | - |
| 1787518318 | 32.22° C | 45% | 1015.5 hPa | 0 mm | - | 436 W/m² | - |
| 1787518013 | 31.67° C | 45% | 1015.5 hPa | 0 mm | - | 439 W/m² | - |
| 1787517709 | 30.56° C | 45% | 1015.8 hPa | 0 mm | - | 440 W/m² | - |
* Rain latest hour (hover to see other rain measurements)
** Current wind speed in m/s (hover to see current wind gust speed)